Regional Weather Roundup
Issued by NWS Midland/Odessa, TX

Skip options and go directly to product.
Home | Oldest Version | Previous Version | Current Version | All | Text Only | Save Text | Print | Product List | Glossary On

Skip product version selection by date and time.   
107
ASUS44 KMAF 061810
RWRMAF
MIDLAND AREA WEATHER ROUNDUP
NATIONAL WEATHER SERVICE MIDLAND TX
100 PM CDT FRI MAY 06 2016

...IN SOUTHWEST TEXAS AND SOUTHEAST NEW MEXICO...

CITY           SKY/WX    TMP DP  RH WIND       PRES   REMARKS
ALPINE         SUNNY     83  35  17 SE18G25   30.12F
ANDREWS        FAIR      84  33  15 SE25G36   30.03F
ARTESIA        SUNNY     84  37  18 SE22G29   29.96F
BIG SPRING     SUNNY     82  41  23 SE26      30.08S
CARLSBAD       SUNNY     85  37  18 S20G30    29.95F
DRYDEN           N/A     89  43  20 SE20G33   30.00F
FORT STOCKTON  SUNNY     86  38  18 SE22G36   29.99F
GUAD PASS      SUNNY     83  23  11 VRB6G20   30.08F
HOBBS          SUNNY     82  36  18 SE29G38   30.02F
MARFA          SUNNY     82  35  18 S20G29    30.10F
MIDLAND AIRPK  SUNNY     87  34  15 S22G30    30.04F
MIDLAND INTL   SUNNY     87  36  16 S28G37    30.03F
ODESSA         SUNNY     86  36  16 S30G37    30.04F
PECOS          SUNNY     94  37  13 E21       29.92F
PRESIDIO       FAIR      91  36  14 NE3       29.95F
SEMINOLE       SUNNY     84  32  15 S24G33    30.04F
SNYDER           N/A     81  47  29 S18       30.08S
WINK           SUNNY     89  37  16 SE24G36   29.96F
$$
...OTHER STATIONS IN TEXAS...

CITY           SKY/WX    TMP DP  RH WIND       PRES   REMARKS
ABILENE        SUNNY     81  55  40 S17G24    30.08F
AMARILLO       SUNNY     80  42  25 S24G35    30.08F
AUSTIN         MOSUNNY   80  50  34 SE7       30.09F
BROWNSVILLE    SUNNY     87  56  34 E7        30.05F
CORPUS CHRISTI MOSUNNY   86  51  29 E9        30.06F
DALLAS FTW     MOSUNNY   81  49  32 SE9       30.09F
DEL RIO        SUNNY     86  46  24 SE18G26   30.03F
EL PASO        MOSUNNY   87  25  10 S10G17    29.93F
HOUSTON INT    MOSUNNY   79  45  29 SE6       30.08F
LUBBOCK        MOSUNNY   85  39  19 S26G33    30.05F
SAN ANGELO     SUNNY     85  49  28 S13G22    30.06F
SAN ANTONIO    MOSUNNY   80  53  39 E10       30.09F
WACO           SUNNY     80  48  32 E5        30.10F
WICHITA FALLS  NOT AVBL
$$
...OTHER LOCATIONS IN NEW MEXICO...

CITY           SKY/WX    TMP DP  RH WIND       PRES   REMARKS
ALAMAGORDO     SUNNY     86  21   9 S21G30    29.95F
ALBUQUERQUE    MOSUNNY   80  18  10 S33G40    29.96F
CANNON AFB     SUNNY     82  33  17 S29G35    30.04F
CLOVIS         SUNNY     81  36  19 S28G35    30.06F
HOLLOMAN AFB   MOSUNNY   86  20   8 S18G29    29.92F
ROSWELL        SUNNY     84  35  17 S18G29    29.97F
RUIDOSO          N/A     75  27  16 S24G35    30.10F
SANTA FE       SUNNY     76  27  16 S26G33    30.04F
TRUTH OR CONSE SUNNY     80  15   8 SW17G29   29.95F
TUCUMCARI      MOSUNNY   83  31  15 S20G30    30.01F
$$

USA.gov is the U.S. government's official web portal to all federal, state and local government web resources and services.